Location: Newark
(23.3970°S, 47.6010°W)
Time: 00:54:13
(UTC+00:00)

Tiros 1 despin weight - Pass Details

Date: 25 February 2020
Orbit: 593 x 642 km, 48.2° (Epoch: 31 March)

Event Time Altitude Azimuth Distance (km) Brightness Sun altitude
Rises 21:44:34 0° 227° (SW) 2,960 ? -1.2°
Reaches altitude 10° 21:46:56 10° 229° (SW) 2,044 ? -1.7°
Maximum altitude 21:51:38 72° 313° (NW) 675 ? -2.8°
Drops below altitude 10° 21:56:14 10° 37° (NE) 2,005 ? -3.8°
Sets 21:58:32 0° 39° (NE) 2,900 ? -4.3°
